Regional Weather Roundup
Issued by NWS

Home | Current Version | Previous Version | Graphics & Text | Print | Product List | Glossary On
Versions: 1 2 3 4 5 6 7 8 9 10 11 12 13 14 15 16 17 18 19 20 21 22 23 24 25 26 27 28 29 30 31 32 33 34 35 36 37 38 39 40 41 42 43 44 45 46 47 48 49 50
000
ASUS44 KMEG 011310
RWRTN
TENNESSEE HOURLY STATE WEATHER ROUNDUP
NATIONAL WEATHER SERVICE MEMPHIS TN
800 AM CDT WED JUL 01 2015

TNZ002-004-019-021-049-052-054-088>092-011400-
WEST TENNESSEE

CITY           SKY/WX    TMP DP  RH WIND       PRES   REMARKS
MEMPHIS INTL   CLOUDY    77  71  82 SW3       29.97R
NWS MEMPHIS      N/A     76 N/A N/A MISG        N/A
JACKSON        CLOUDY    76  72  87 SW9       29.96S
DYERSBURG        N/A    N/A N/A N/A MISG        N/A
PARIS          MOSUNNY   72  70  94 CALM      29.96F
LEXINGTON      CLOUDY    73  73 100 S7        29.97R
$$

TNZ008-025-027-028-033-062-065-066-011400-
NORTH MIDDLE TENNESSEE

CITY           SKY/WX    TMP DP  RH WIND       PRES   REMARKS
NASHVILLE      CLOUDY    76  71  85 S7        29.99R
CLARKSVILLE    CLOUDY    75  70  84 SW5       29.96R
SMYRNA         MOSUNNY   75  72  91 CALM      30.00R
COOKEVILLE     CLOUDY    73  72  94 SW6       30.01R
CROSSVILLE     PTSUNNY   72  67  84 W6        30.06R
$$

TNZ061-075-076-078-094-096-097-011400-
SOUTH MIDDLE TENNESSEE

CITY           SKY/WX    TMP DP  RH WIND       PRES   REMARKS
FAYETTEVILLE   CLOUDY    72  70  94 S6        30.03F
TULLAHOMA      MOSUNNY   72  68  88 SW7       30.03S
WINCHESTER     PTSUNNY   73  70  88 SW3       30.04S
MCMINNVILLE    MOSUNNY   73  73 100 SW5       30.03R
COLUMBIA       MOSUNNY   75  73  94 SW6       29.99R
SHELBYVILLE    SUNNY     73  72  94 S6        30.02S
$$

TNZ017-018-042-046-047-011400-
NORTHEAST TENNESSEE

CITY           SKY/WX    TMP DP  RH WIND       PRES   REMARKS
TRI CITIES     CLOUDY    70  66  87 SW7       30.02S
ELIZABETHTON   CLOUDY    68  64  88 W5        30.03S
$$

TNZ012-013-036-069-073-074-011400-
CENTRAL EAST TENNESSEE

CITY           SKY/WX    TMP DP  RH WIND       PRES   REMARKS
KNOXVILLE      CLOUDY    72  68  87 SW9       30.00R
OAK RIDGE      CLOUDY    72  68  87 VRB5      30.02R
GATLINBURG     CLOUDY    72  66  83 SW6       30.00S
MORRISTOWN     CLOUDY    72  68  88 SW7       30.03R
$$

TNZ083-085-099-011400-
SOUTHEAST TENNESSEE

CITY           SKY/WX    TMP DP  RH WIND       PRES   REMARKS
CHATTANOOGA    CLOUDY    73  68  84 S7        30.03R
$$

SKY/WX REPORTED AS FAIR MEANS FEW OR NO CLOUDS BELOW
12 THOUSAND FEET.




USA.gov is the U.S. government's official web portal to all federal, state and local government web resources and services.